STARLINK-32630, 62047

Orbit data source: Space-Track

STARLINK-32630, 62047 is a payload satellite owned by SpaceX/Seattle (US) in LEO that was launched on Thu, 21 Nov 2024 UTC via an FALCON 9 launch vehicle from the Air Force Eastern Test Range (AFETR). Payloads include a variety of satellites, spacecraft, and rockets equipped with specific instruments for various scientific and technological missions. These include communications satellites like Starlink; space stations such as the ISS; scientific satellites like the Hubble; Earth observation satellites from companies like Planet Labs, Umbra, and HawkEye 360; GPS; miniature CubeSats for education and research; and military/defense satellites.

Loading next visibility...
STARLINK-32630 details
Identifier
62047, 2024-216R
Orbit
LEO
Last TLE update11 hours ago
Origin
Flag of USSpaceX/Seattle (US)
ManufacturerSpaceX/Seattle
MissionOperational spacecraft
Bus & MotorSTARLINK V2M, Unknown motor
Mass730 kg wet, ~700 kg dry
Launch date (UTC)
2024-11-21 (3 weeks ago)
Launch vehicle
FALCON 9
Launch site
Air Force Eastern Test Range (AFETR)
Object type
Payload
Rocket body
Debris
Shape & HBRUnknown
Radar Cross SectionLarge (>1 m²)

Expand to show TLE details & history

TLE from 11 hours ago
0 STARLINK-32630
1 62047U 24216R   24348.50002315 -.00009258  00000-0 -15213-3 0  9992
2 62047  42.9996 307.3529 0001169 280.9319 198.0680 15.50588627  4539
Epoch: 2024-12-13T12:00Z
Definitive object data (Epoch: 2024-12-13T12:00:02Z)
Latitude36.76094°
Longitude171.86884°
Altitude417.548 km
Speed7.666 km/s
True Right ascension04h 58m 10s
True Declination36° 35' 17"
Sunlit
Object was in full shadow at TLE epoch
Visualization TLE readout
Latitude43.08058°
Longitude127.82496°
Altitude418.907 km
Speed7.665 km/s
Apparent Right ascension05h 35m 10s
Apparent Declination5° 23' 33"
Sunlit
Object is in full shadow
Visualization observer readout
Local Sidereal Time21:13:00
Azimuth61.304° ENE
Elevation-22.555°
Doppler factor1
Orbital elements
Apogee altitude417.765 km
Perigee altitude416.177 km
Semi-major axis6,795.108 km
Eccentricity0.0001169
Inclination42.9996°
RAAN307.3529°
Arg. of periapsis280.9319°
True anomaly198.06385°
Mean anomaly198.068°
Eccentric anomaly198.06592°
Mean motion3.87479 °/min
BSTAR-0.00015213
Orbital period92.91 mins
Loading maneuver chart data...
Loading historical data...
Loading historical data...
Loading historical data...
Loading historical data...
Loading historical data...
Loading historical data...
Loading historical data...

STARLINK-32630 Visibility forecast

Observer location: undefined°, undefined

Span
Click to sort rows by Start time (UTC) header in descending order
Start Az.
Max El. time (UTC)
Max El. Az.
Max El.
End time (UTC)
End Az.
4 mins2024-12-14 01:40:03.522Z237.508° WSW2024-12-14 01:41:03.522Z214.818° SW41.525°2024-12-14 01:44:03.522Z75.066° E
5 mins2024-12-14 03:17:03.522Z288.175° WNW2024-12-14 03:19:03.522Z359.841° N36.879°2024-12-14 03:22:03.522Z71.723° E
4 mins2024-12-14 04:55:03.522Z297.419° NW2024-12-14 04:57:03.522Z58.699° ENE40.521°2024-12-14 04:59:03.522Z94.609° ESE
4 mins2024-12-14 06:32:03.522Z262.774° W2024-12-14 06:34:03.522Z205.24° SW27.671°2024-12-14 06:36:03.522Z153.781° SSE
|